Regional Weather Roundup
Issued by NWS

Home | Current Version | Previous Version | Graphics & Text | Print | Product List | Glossary On
Versions: 1 2 3 4 5 6 7 8 9 10 11 12 13 14 15 16 17 18 19 20 21 22 23 24 25 26 27 28 29 30 31 32 33 34 35 36 37 38 39 40 41 42 43 44 45 46 47 48 49 50
000
ASUS43 KFSD 271010
RWRSD

WEATHER ROUNDUP FOR SOUTH DAKOTA
NATIONAL WEATHER SERVICE SIOUX FALLS SD
500 AM CDT MON MAR 27 2017

NOTE: "FAIR" INDICATES FEW OR NO CLOUDS BELOW 12,000 FEET WITH NO
SIGNIFICANT WEATHER AND/OR OBSTRUCTIONS TO VISIBILITY.


SDZ001>005-009-010-012>017-271100-
NORTHWEST AND NORTH CENTRAL SOUTH DAKOTA

CITY           SKY/WX    TMP DP  RH WIND       PRES   REMARKS
BUFFALO          N/A     38  34  85 S6        29.81S
FAITH            N/A     35  35 100 MISG      29.89F
MOBRIDGE       CLEAR     36  33  89 SE3       29.89S
$$

SDZ012>016-024>037-041>051-057-063-072>074-271100-
SOUTHWEST AND SOUTH CENTRAL SOUTH DAKOTA

CITY           SKY/WX    TMP DP  RH WIND       PRES   REMARKS
RAPID CTY ARPT FOG       29  28  96 CALM      29.89R VSB 1/4
PIERRE         CLOUDY    40  38  93 CALM      29.91F
CUSTER         CLOUDY    31  28  89 W6        29.88S WCI  25
ELLSWORTH AFB  CLEAR     34  34 100 S3        29.88S
PHILIP         CLOUDY    37  36  96 CALM      29.91S
PINE RIDGE     CLOUDY    41  39  93 CALM      29.90F
SPEARFISH      FAIR      34  30  86 SW7       29.87F WCI  28
WINNER         FAIR      33  32  96 CALM      29.92F FOG
$$

SDZ004>011-016>023-039-040-271100-
NORTHEAST SOUTH DAKOTA

CITY           SKY/WX    TMP DP  RH WIND       PRES   REMARKS
ABERDEEN       CLOUDY    35  33  92 CALM      29.93S
WATERTOWN      CLOUDY    35  34  96 CALM      29.92F
BROOKINGS      FOG       33  32  96 CALM      29.94S VSB 1/2
SISSETON         N/A     34  34 100 SE6       29.93S WCI  29
$$

SDZ017-020-022-023-036>040-048>070-271100-
SOUTHEAST SOUTH DAKOTA

CITY           SKY/WX    TMP DP  RH WIND       PRES   REMARKS
SIOUX FALLS    CLOUDY    41  38  89 E3        29.95S
HURON          CLOUDY    38  36  92 CALM      29.93F
CHAMBERLAIN    FOG       32  32 100 CALM      29.93F VSB 1/2
MITCHELL       CLOUDY    31  31 100 CALM      29.95F FOG
YANKTON        CLOUDY    43  39  87 CALM      29.95R
$$

ABBREVIATIONS USED IN REMARKS
   TC - TEMPERATURE IN CELSIUS
  WCI - WIND CHILL INDEX
   HX - HEAT INDEX
  VSB - VISIBILITY





USA.gov is the U.S. government's official web portal to all federal, state and local government web resources and services.